Regional Weather Roundup
Issued by NWS

Home | Current Version | Previous Version | Text Only | Print | Product List | Glossary Off
Versions: 1 2 3 4 5 6 7 8 9 10 11 12 13 14 15 16 17 18 19 20 21 22 23 24 25 26 27 28 29 30 31 32 33 34 35 36 37 38 39 40 41 42 43 44 45 46 47 48 49 50

000
ASUS43 KBIS 260020
RWRND

NORTH DAKOTA REGIONAL WEATHER ROUNDUP
NATIONAL WEATHER SERVICE BISMARCK ND
600 PM CST SUN JAN 25 2015

NOTE: "FAIR" INDICATES FEW OR NO CLOUDS BELOW 12,000 FEET WITH NO
SIGNIFICANT WEATHER AND/OR OBSTRUCTIONS TO VISIBILITY.


NDZ001>003-009>011-017-260100-
NORTHWEST NORTH DAKOTA

CITY           SKY/WX    TMP DP  RH WIND       PRES   REMARKS
WILLISTON      PTCLDY    40  31  70 SW7       29.82S
6HR MIN TEMP:  36; 6HR MAX TEMP:  43;

MINOT          MOCLDY    36  30  79 S10       29.79F
MINOT AFB      MOCLDY    34  34  99 S8        29.78F
$$

NDZ018>021-031>035-040>046-260100-
SOUTHWEST NORTH DAKOTA

CITY           SKY/WX    TMP DP  RH WIND       PRES   REMARKS
BISMARCK       CLOUDY    36  32  85 S3        29.89F
6HR MIN TEMP:  35; 6HR MAX TEMP:  37;

DICKINSON      MOCLDY    41  30  65 SW15      29.83F
GARRISON         N/A     34  32  92 S5        29.83F
6HR MIN TEMP:  33; 6HR MAX TEMP:  36;

HETTINGER ARPT PTCLDY    39  26  59 S5        29.90S
$$

NDZ004>008-012>016-024-026-027-054-260100-
NORTHEAST NORTH DAKOTA

CITY           SKY/WX    TMP DP  RH WIND       PRES   REMARKS
GRAND FORKS    CLOUDY    26  19  74 S8        29.95F WCI  18
GRND FRKS AFB  CLOUDY    26  19  74 S9        29.94F WCI  17
DEVILS LAKE    CLOUDY    27  21  80 S8        29.86F WCI  18
$$

NDZ022-023-025-028>030-036>039-047>053-260100-
SOUTHEAST NORTH DAKOTA

CITY           SKY/WX    TMP DP  RH WIND       PRES   REMARKS
FARGO          CLOUDY    26  17  68 S6        29.99F WCI  19
6HR MIN TEMP:  24; 6HR MAX TEMP:  27;

JAMESTOWN      CLOUDY    29  26  89 S10       29.90F WCI  20
$$



USA.gov is the U.S. government's official web portal to all federal, state and local government web resources and services.